Location: Krakow
(50.0212°N, 19.9423°E)
Time: 13:32:37
(UTC+02:00)

NOAA 18 - Pass Details

Date: 03 May 2025
Orbit: 837 x 857 km, 98.8° (Epoch: 14 May)

Event Time Altitude Azimuth Distance (km) Brightness Sun altitude
Exits shadow 23:28:53 30° 217° (SW) 1,493 6.2 -22.3°
Maximum altitude 23:30:56 41° 262° (W) 1,227 6.1 -22.4°
Drops below altitude 10° 23:36:10 10° 333° (NNW) 2,502 8.7 -22.7°
Sets 23:38:42 0° 340° (NNW) 3,441 9.9 -22.8°
